TimeMST,TemperatureF,Dew PointF,Humidity,Sea Level PressureIn,VisibilityMPH,Wind Direction,Wind SpeedMPH,Gust SpeedMPH,PrecipitationIn,Events,Conditions,WindDirDegrees,DateUTC
12:55 AM,34.0,33.1,96,29.58,10.0,SSW,3.5,-,N/A,,Overcast,200,2012-12-12 07:55:00
1:55 AM,34.0,33.1,96,29.57,10.0,Calm,Calm,-,N/A,,Overcast,0,2012-12-12 08:55:00
2:02 AM,33.8,32.0,93,29.52,10.0,WSW,3.5,-,N/A,,Overcast,240,2012-12-12 09:02:00
2:12 AM,33.8,33.8,100,29.52,10.0,SW,3.5,-,0.00,Rain,Light Rain,230,2012-12-12 09:12:00
2:55 AM,33.1,33.1,100,29.59,10.0,Calm,Calm,-,0.00,,Overcast,0,2012-12-12 09:55:00
3:27 AM,33.8,33.8,100,29.53,10.0,Calm,Calm,-,0.00,Rain,Light Rain,0,2012-12-12 10:27:00
3:55 AM,33.1,32.0,96,29.58,10.0,Calm,Calm,-,0.00,,Overcast,0,2012-12-12 10:55:00
4:55 AM,33.1,32.0,96,29.58,2.5,Calm,Calm,-,0.01,Snow,Light Snow,0,2012-12-12 11:55:00
5:08 AM,33.8,32.0,93,29.52,3.0,Calm,Calm,-,0.00,Snow,Light Snow,0,2012-12-12 12:08:00
5:25 AM,33.8,32.0,93,29.52,4.0,Calm,Calm,-,0.00,Snow,Light Snow,0,2012-12-12 12:25:00
5:50 AM,32.0,32.0,100,29.53,2.0,Calm,Calm,-,0.01,Snow,Light Snow,0,2012-12-12 12:50:00
5:55 AM,33.1,32.0,96,29.59,1.8,Calm,Calm,-,0.01,Snow,Light Snow,0,2012-12-12 12:55:00
6:15 AM,32.0,32.0,100,29.53,1.2,Calm,Calm,-,0.01,Snow,Light Snow,0,2012-12-12 13:15:00
6:55 AM,32.0,32.0,100,29.61,1.0,Calm,Calm,-,0.05,Snow,Light Snow,0,2012-12-12 13:55:00
7:17 AM,32.0,32.0,100,29.55,1.5,Calm,Calm,-,0.01,Snow,Light Snow,0,2012-12-12 14:17:00
7:26 AM,32.0,32.0,100,29.55,2.0,Calm,Calm,-,0.02,Snow,Light Snow,0,2012-12-12 14:26:00
7:50 AM,32.0,32.0,100,29.56,1.8,Calm,Calm,-,0.02,Snow,Light Snow,0,2012-12-12 14:50:00
7:55 AM,32.0,32.0,100,29.62,0.5,Calm,Calm,-,0.02,Fog-Snow,Light Snow,0,2012-12-12 14:55:00
8:55 AM,32.0,32.0,100,29.65,0.5,Calm,Calm,-,0.02,Fog-Snow,Light Snow,0,2012-12-12 15:55:00
9:02 AM,32.0,32.0,100,29.58,0.5,Calm,Calm,-,0.01,Fog-Snow,Snow,0,2012-12-12 16:02:00
9:09 AM,32.0,32.0,100,29.59,0.5,Calm,Calm,-,0.01,Fog-Snow,Light Snow,0,2012-12-12 16:09:00
9:22 AM,32.0,32.0,100,29.59,0.5,Calm,Calm,-,0.02,Fog-Snow,Light Snow,0,2012-12-12 16:22:00
9:55 AM,33.1,32.0,96,29.67,0.5,Calm,Calm,-,0.03,Fog-Snow,Light Snow,0,2012-12-12 16:55:00
10:09 AM,33.8,32.0,93,29.62,1.5,Calm,Calm,-,0.00,Snow,Light Snow,0,2012-12-12 17:09:00
10:21 AM,33.8,33.8,100,29.62,2.0,Calm,Calm,-,0.00,,Overcast,0,2012-12-12 17:21:00
10:36 AM,33.8,32.0,93,29.63,3.0,Calm,Calm,-,0.00,,Overcast,0,2012-12-12 17:36:00
10:55 AM,33.1,32.0,96,29.70,4.0,Calm,Calm,-,0.00,,Overcast,0,2012-12-12 17:55:00
11:52 AM,33.8,33.8,100,29.64,1.0,Calm,Calm,-,0.00,Snow,Light Snow,0,2012-12-12 18:52:00
11:55 AM,34.0,33.1,96,29.71,1.0,Calm,Calm,-,0.00,Snow,Light Snow,0,2012-12-12 18:55:00
12:41 PM,33.8,33.8,100,29.65,1.0,Calm,Calm,-,0.00,,Overcast,0,2012-12-12 19:41:00
12:55 PM,35.1,33.1,92,29.72,1.0,Calm,Calm,-,0.00,,Overcast,0,2012-12-12 19:55:00
12:58 PM,35.6,33.8,93,29.66,6.0,Calm,Calm,-,N/A,,Overcast,0,2012-12-12 19:58:00
1:05 PM,35.6,33.8,93,29.66,2.0,Calm,Calm,-,N/A,,Overcast,0,2012-12-12 20:05:00
1:12 PM,35.6,33.8,93,29.66,2.0,Calm,Calm,-,N/A,,Overcast,0,2012-12-12 20:12:00
1:43 PM,33.8,33.8,100,29.66,2.0,Calm,Calm,-,0.00,Snow,Light Snow,0,2012-12-12 20:43:00
1:55 PM,35.1,33.1,92,29.73,2.0,Calm,Calm,-,0.00,Snow,Light Snow,0,2012-12-12 20:55:00
2:28 PM,33.8,33.8,100,29.68,2.0,Calm,Calm,-,0.01,Snow,Light Snow,0,2012-12-12 21:28:00
2:38 PM,33.8,33.8,100,29.68,2.0,Calm,Calm,-,0.01,,Overcast,0,2012-12-12 21:38:00
2:55 PM,34.0,33.1,96,29.75,2.0,Calm,Calm,-,0.01,,Overcast,0,2012-12-12 21:55:00
3:22 PM,33.8,33.8,100,29.70,2.0,Calm,Calm,-,N/A,,Overcast,0,2012-12-12 22:22:00
3:55 PM,34.0,33.1,96,29.77,2.0,Calm,Calm,-,0.00,,Overcast,0,2012-12-12 22:55:00
4:02 PM,33.8,33.8,100,29.71,8.0,Calm,Calm,-,N/A,,Overcast,0,2012-12-12 23:02:00
4:55 PM,34.0,33.1,96,29.79,6.0,WSW,3.5,-,N/A,,Overcast,250,2012-12-12 23:55:00
5:15 PM,33.8,33.8,100,29.73,10.0,West,3.5,-,N/A,,Overcast,260,2012-12-13 00:15:00
5:55 PM,33.1,32.0,96,29.82,10.0,West,4.6,-,N/A,,Overcast,260,2012-12-13 00:55:00
6:55 PM,33.1,32.0,96,29.83,8.0,Calm,Calm,-,0.00,Snow,Light Snow,0,2012-12-13 01:55:00
7:24 PM,33.8,32.0,93,29.77,9.0,Calm,Calm,-,0.00,Snow,Light Snow,0,2012-12-13 02:24:00
7:55 PM,32.0,30.9,96,29.85,9.0,South,3.5,-,0.00,Snow,Light Snow,190,2012-12-13 02:55:00
8:48 PM,30.2,28.4,93,29.79,1.8,SSE,8.1,-,0.00,,Scattered Clouds,160,2012-12-13 03:48:00
8:53 PM,30.2,30.2,100,29.79,3.0,SSE,6.9,-,0.00,,Scattered Clouds,160,2012-12-13 03:53:00
8:55 PM,30.0,30.0,100,29.87,5.0,South,8.1,-,0.00,,Scattered Clouds,170,2012-12-13 03:55:00
9:08 PM,30.2,30.2,100,29.80,3.0,Calm,Calm,-,N/A,,Scattered Clouds,0,2012-12-13 04:08:00
9:11 PM,30.2,30.2,100,29.80,2.0,West,3.5,-,N/A,,Mostly Cloudy,280,2012-12-13 04:11:00
9:23 PM,28.4,28.4,100,29.80,3.0,West,3.5,-,N/A,,Mostly Cloudy,260,2012-12-13 04:23:00
9:48 PM,28.4,28.4,100,29.81,1.5,South,4.6,-,N/A,,Mostly Cloudy,170,2012-12-13 04:48:00
9:51 PM,28.4,28.4,100,29.81,0.8,South,4.6,-,N/A,,Overcast,170,2012-12-13 04:51:00
9:55 PM,28.9,28.0,96,29.89,0.5,South,4.6,-,N/A,Fog,Light Freezing Fog,190,2012-12-13 04:55:00
10:24 PM,28.4,26.6,93,29.82,1.5,WSW,3.5,-,N/A,,Overcast,240,2012-12-13 05:24:00
10:26 PM,28.4,26.6,93,29.82,3.0,Calm,Calm,-,N/A,,Overcast,0,2012-12-13 05:26:00
10:42 PM,26.6,26.6,100,29.83,10.0,NW,4.6,-,N/A,,Overcast,320,2012-12-13 05:42:00
10:55 PM,27.0,27.0,100,29.91,6.0,Calm,Calm,-,N/A,,Overcast,0,2012-12-13 05:55:00
11:55 PM,28.0,27.0,96,29.92,10.0,Calm,Calm,-,N/A,,Overcast,0,2012-12-13 06:55:00